Location: La Oliva
(42.2466°N, 2.9955°E)
Time: 08:17:45
(UTC+00:00)

Cosmos 405 - Pass Details

Date: 22 April 2021
Orbit: 448 x 460 km, 81.3° (Epoch: 07 May)

Event Time Altitude Azimuth Distance (km) Brightness Sun altitude
Rises 19:00:13 0° 187° (S) 2,442 6.5 -4.8°
Reaches altitude 10° 19:02:15 10° 187° (S) 1,577 5.5 -5.1°
Maximum altitude 19:05:42 86° 102° (ESE) 459 2.9 -5.7°
Drops below altitude 10° 19:09:12 10° 11° (N) 1,598 5.9 -6.3°
Sets 19:11:17 0° 11° (N) 2,479 6.8 -6.7°
